Regional Weather Roundup
Issued by NWS

Home | Current Version | Previous Version | Graphics & Text | Print | Product List | Glossary On
Versions: 1 2 3 4 5 6 7 8 9 10 11 12 13 14 15 16 17 18 19 20 21 22 23 24 25 26 27 28 29 30 31 32 33 34 35 36 37 38 39 40 41 42 43 44 45 46 47 48 49 50
000
ASUS43 KMPX 010201
RWRMN
WEATHER ROUNDUP FOR MINNESOTA
NATIONAL WEATHER SERVICE TWIN CITIES/CHANHASSEN MN
900 PM CDT TUE MAY 31 2016


NOTE: "FAIR" INDICATES FEW OR NO CLOUDS BELOW 12,000 FEET WITH NO
SIGNIFICANT WEATHER AND/OR OBSTRUCTIONS TO VISIBILITY. N/A MEANS
CURRENT SKY AND/OR WEATHER CONDITIONS ARE NOT AVAILABLE.

MNZ060>063-068>070-010300-
   Twin Cities Metro

CITY           SKY/WX    TMP DP  RH WIND       PRES   REMARKS
TWIN CITIES    CLOUDY    70  58  65 SE7       29.84S
ST PAUL        CLOUDY    67  61  81 SE8       29.84S
CRYSTAL        CLOUDY    69  50  50 W6        29.82S
BLAINE         MOCLDY    72  57  60 CALM      29.83S
EDEN PRAIRIE   CLEAR     69  50  50 SW7       29.83S
SOUTH ST PAUL  CLOUDY    67  62  83 SE6       29.85R
LAKE ELMO      FAIR      64  63  94 SE6       29.86S
$$
MNZ001>005-007-008-013>017-022>024-027-028-010300-
   Northwest Minnesota

CITY           SKY/WX    TMP DP  RH WIND       PRES   REMARKS
BEMIDJI        CLEAR     60  47  61 SE7       29.74F
HALLOCK        CLOUDY    61  52  72 S12       29.67R
ROSEAU         MOCLDY    61  54  77 E10       29.71F
WARROAD        CLOUDY    57  54  88 E12       29.74S
THIEF RVR FALL MOCLDY    61  48  63 SE5       29.69F
CROOKSTON      MOCLDY    61  52  72 E5        29.66F
FOSSTON        MOCLDY    61  46  59 S6        29.70F
DETROIT LAKES  CLOUDY    64  46  52 S13       29.71F
MOORHEAD       CLOUDY    61  52  72 SW10      29.66F
PARK RAPIDS    CLOUDY    65  46  50 S7        29.74F
MAHNOMEN       CLOUDY    62  48  61 S8        29.69F
$$
MNZ006-009>011-018-025>026-010300-
   North Central Minnesota

CITY           SKY/WX    TMP DP  RH WIND       PRES   REMARKS
BAUDETTE       CLOUDY    56  53  90 E13       29.76F
FLAG ISLAND    CLOUDY    54  52  94 E10       29.76S
INTL FALLS     FOG       53  52  96 SE9       29.81F VSB 3/4
WASKISH        PTCLDY    57  55  94 E8        29.75F
BIG FORK       CLOUDY    55  54  94 SE8       29.81F
LONGVILLE      CLEAR     61  55  82 CALM      29.78S
GRAND RAPIDS   CLOUDY    52  51  97 E7        29.84S FOG
CRANE LAKE     CLOUDY    52  50  93 CALM      29.87S
ORR            CLOUDY    54  50  87 CALM      29.81F
COOK           CLOUDY    54  52  94 SE5       29.85S
WALKER         FAIR      63  46  54 SE6       29.76S
$$
MNZ012-019>021-037-010300-
   Northeast Minnesota

CITY           SKY/WX    TMP DP  RH WIND       PRES   REMARKS
DULUTH         CLOUDY    45  43  93 E8        29.87F FOG
ELY            CLOUDY    52  46  82 SE9       29.87S
HIBBING        CLOUDY    51  50  96 SE9       29.84F
EVELETH        CLOUDY    52  50  93 E3        29.87S
DULUTH HARBOR  CLOUDY    45  43  93 NE20      29.91S
TWO HARBORS    LGT RAIN  48  43  81 NE6       29.87S
SILVER BAY     CLOUDY    46  45  93 NE10      29.89S
GRAND MARAIS     N/A     50  44  80 NE13      29.93F
G MARAIS ARPRT RAIN      46  43  87 E7        29.93F
$$
MNZ029>031-032-039>041-046>048-054>057-064-010300-
   West Central Minnesota

CITY           SKY/WX    TMP DP  RH WIND       PRES   REMARKS
FERGUS FALLS   CLOUDY    64  48  55 SW13      29.68F
WHEATON        CLOUDY    66  50  55 SW22G30   29.73F
MORRIS         CLOUDY    66  46  48 SW14      29.75S
ALEXANDRIA     CLOUDY    66  48  52 S10       29.77F
ELBOW LAKE     CLOUDY    64  48  54 W14       29.73F
WADENA         CLOUDY    63  48  59 SE8       29.74F
GLENWOOD       MOCLDY    64  52  63 S8        29.78F
APPLETON       MOCLDY    70  45  40 SW13G21   29.77S
BENSON         CLOUDY    66  48  52 W7        29.78S
ORTONVILLE     MOCLDY    66  45  45 SW14G21   29.76F
MADISON        MOCLDY    68  45  42 SW10G16   29.79S
WILLMAR        FAIR      70  50  49 S5        29.81F
$$
MNZ033>034-036-042>043-049>051-058-059-010300-
   Central Minnesota

CITY           SKY/WX    TMP DP  RH WIND       PRES   REMARKS
ST CLOUD       CLEAR     65  51  60 S5        29.81F
SAUK CENTRE    FAIR      61  50  68 SE7       29.79S
PAYNESVILLE    CLEAR     66  49  54 S5        29.81S
AITKIN         CLEAR     55  48  76 E6        29.81R
PINE RIVER     CLEAR     61  48  63 S5        29.81F
BRAINERD       CLEAR     60  51  72 S6        29.79F
STAPLES        MOCLDY    63  46  55 SE6       29.77F
LONG PRAIRIE   MOCLDY    63  50  63 E7        29.79F
LITTLE FALLS   CLEAR     61  48  63 SE5       29.80F
LITCHFIELD     CLEAR     66  52  59 CALM      29.83S
BUFFALO        CLEAR     67  49  51 CALM      29.84S
MAPLE LAKE     CLEAR     68  54  62 CALM      29.84S
HUTCHINSON     PTCLDY    66  54  64 S5        29.84S
$$
MNZ037-044-045-052-053-010300-
   East Central Minnesota

CITY           SKY/WX    TMP DP  RH WIND       PRES   REMARKS
PRINCETON      CLEAR     66  52  59 S3        29.82F
MORA           CLOUDY    68  52  56 SW3       29.84S
CAMBRIDGE      CLOUDY    70  54  56 S3        29.81S
RUSH CITY      CLOUDY    65  58  75 S3        29.83S
MOOSE LAKE     FOG       43  41  93 E6        29.85F VSB 1
HINCKLEY       CLOUDY    52  52 100 N6        29.85R
CLOQUET        CLOUDY    43  41  93 E9        29.87F
MCGREGOR       CLOUDY    48  46  93 E7        29.85S
$$
MNZ071>073-080-081-089-090-097-098-010300-
   Southwest Minnesota

CITY           SKY/WX    TMP DP  RH WIND       PRES   REMARKS
MONTEVIDEO     CLOUDY    70  48  46 W6        29.81S
GRANITE FALLS  MOCLDY    68  53  58 S9        29.83R
CANBY          PTCLDY    70  47  44 SW13      29.82S
MARSHALL       MOCLDY    69  50  50 SW10      29.83R
REDWOOD FALLS  CLEAR     67  50  54 S8        29.82F
OLIVIA         PTCLDY    63  45  51 S7        29.81F
PIPESTONE      CLOUDY    66  50  55 SW12G17   29.87R
WINDOM         CLEAR     66  50  55 CALM      29.87S
WORTHINGTON    PTCLDY    66  51  58 S8        29.88F
JACKSON        CLEAR     64  50  59 SW6       29.89S
TRACY          PTCLDY    67  52  59 SW8       29.84F
SLAYTON        CLEAR     66  47  51 S10       29.87S
$$
MNZ065>067-074>077-082>085-091>093-010300-
   South Central Minnesota

CITY           SKY/WX    TMP DP  RH WIND       PRES   REMARKS
MANKATO        CLEAR     68  50  52 W5        29.87R
NEW ULM        CLEAR     64  52  63 S7        29.85S
ST JAMES       CLEAR    N/A N/A N/A CALM      29.88S
FAIRMONT       CLEAR     66  54  63 SW5       29.88S
GLENCOE        CLEAR     68  54  61 S6        29.84S
FARIBAULT      CLOUDY    66  61  82 S5        29.87S
OWATONNA       CLOUDY    66  61  82 S6        29.88R
WASECA         CLOUDY    64  59  82 S3        29.89R
ALBERT LEA     CLOUDY    66  57  72 CALM      29.89R
$$
MNZ078>079-086>088-094>096-010300-
   Southeast Minnesota

CITY           SKY/WX    TMP DP  RH WIND       PRES   REMARKS
ROCHESTER      CLOUDY    66  63  90 SW5       29.90R
RED WING       CLOUDY    64  63  94 SE3       29.86S
STANTON        PTCLDY    66  61  82 SE5       29.85S
DODGE CENTER   CLOUDY    64  61  88 S6        29.90R
WINONA         CLOUDY    63  61  94 SE3       29.89S
AUSTIN         CLOUDY    63  57  82 SW3       29.90R
PRESTON        CLOUDY    62  60  94 SE6       29.91R
$$
ABBREVIATIONS USED IN REMARKS
   TC - TEMPERATURES IN CELSIUS
  WCI - WIND CHILL INDEX
   HX - HEAT INDEX
  VSB - VISIBILITY
$$




USA.gov is the U.S. government's official web portal to all federal, state and local government web resources and services.